Location: Newark
(25.0000°N, 73.5000°E)
Time: 00:43:46
(UTC+00:00)

Explorer 7 - All Passes

Search period start: 31 July 2021 00:00
Search period end: 10 August 2021 00:00
Orbit: 484 x 676 km, 50.3° (Epoch: 30 July)

Date Brightness Start Highest point End Pass type
(mag) Time Alt. Az. Time Alt. Az. Time Alt. Az.
31 Jul - 00:21:07 10° WNW 00:22:56 13° NW 00:24:47 10° N daylight
31 Jul - 07:08:17 10° NNW 07:12:29 39° NE 07:16:53 10° ESE daylight
31 Jul - 08:49:18 10° WNW 08:52:51 22° SW 08:56:30 10° S daylight
31 Jul - 22:42:49 10° SW 22:46:32 71° NW 22:50:18 10° NE visible
01 Aug - 07:12:21 10° NW 07:16:49 70° NE 07:21:31 10° SE daylight
01 Aug - 08:55:22 10° WSW 08:57:01 12° SW 08:58:41 10° SW daylight
01 Aug - 21:08:32 10° SSE 21:10:44 15° SE 21:12:56 10° E visible
01 Aug - 22:47:27 10° WSW 22:50:53 34° NW 22:54:22 10° NNE visible
02 Aug - 05:37:40 10° N 05:40:22 16° NE 05:43:09 10° ENE daylight
02 Aug - 07:16:40 10° NW 07:21:06 63° SW 07:25:45 10° SSE daylight
02 Aug - 21:11:36 10° S 21:14:54 30° SE 21:18:12 10° ENE visible
02 Aug - 22:52:34 10° W 22:55:19 19° NW 22:58:05 10° N visible
03 Aug - 05:41:12 10° NNW 05:44:50 25° NE 05:48:38 10° E daylight
03 Aug - 07:21:17 10° WNW 07:25:19 33° SW 07:29:33 10° SSE daylight
03 Aug - 21:15:25 10° SSW 21:19:07 65° SE 21:22:49 10° NE visible
03 Aug - 22:58:38 10° NW 22:59:50 11° NW 23:01:02 10° NNW visible
04 Aug - 05:45:04 10° NNW 05:49:13 43° NE 05:53:35 10° ESE daylight
04 Aug - 07:26:24 10° W 07:29:31 18° SW 07:32:44 10° S daylight
04 Aug - 21:19:42 10° SW 21:23:24 59° NW 21:27:06 10° NE visible
05 Aug - 04:11:52 10° NNE 04:12:37 10° NE 04:13:23 10° NE daylight
05 Aug - 05:49:11 10° NW 05:53:31 81° NE 05:58:08 10° SE daylight
05 Aug - 19:44:55 10° S 19:47:31 18° SE 19:50:07 10° E night (unlit)
05 Aug - 21:24:26 10° WSW 21:27:45 29° NW 21:31:04 10° NNE visible
06 Aug - 04:14:22 10° N 04:17:09 17° NE 04:20:03 10° E daylight
06 Aug - 05:53:33 10° NW 05:57:47 53° SW 06:02:16 10° SSE daylight
06 Aug - 19:48:13 10° SSW 19:51:43 36° SE 19:55:10 10° ENE night (unlit)
06 Aug - 21:29:42 10° W 21:32:11 17° NW 21:34:41 10° N visible
07 Aug - 04:17:57 10° NNW 04:21:36 28° NE 04:25:25 10° ESE daylight
07 Aug - 05:58:16 10° WNW 06:02:01 28° SW 06:05:56 10° S daylight
07 Aug - 19:52:10 10° SW 19:55:57 78° SE 19:59:41 10° NE night (unlit)
08 Aug - 04:21:52 10° NNW 04:25:57 49° NE 04:30:16 10° ESE daylight
08 Aug - 06:03:38 10° W 06:06:12 15° SW 06:08:51 10° SSW daylight
08 Aug - 18:19:16 10° SE 18:20:09 11° SE 18:21:01 10° ESE night (unlit)
08 Aug - 19:56:33 10° WSW 20:00:14 49° NW 20:03:53 10° NNE night (unlit)
09 Aug - 02:48:15 10° NNE 02:49:26 11° NE 02:50:38 10° NE daylight
09 Aug - 04:26:02 10° NW 04:30:14 88° SW 04:34:43 10° SE daylight
09 Aug - 18:21:19 10° S 18:24:19 21° SE 18:27:15 10° ENE night (unlit)
09 Aug - 20:01:24 10° W 20:04:36 26° NW 20:07:47 10° NNE night (unlit)
